TimeEDT,TemperatureF,Dew PointF,Humidity,Sea Level PressureIn,VisibilityMPH,Wind Direction,Wind SpeedMPH,Gust SpeedMPH,PrecipitationIn,Events,Conditions,WindDirDegrees,DateUTC
12:53 AM,60.1,57.0,90,30.06,10.0,Calm,Calm,-,N/A,,Clear,0,2013-09-04 04:53:00
1:53 AM,61.0,59.0,93,30.07,10.0,Calm,Calm,-,0.00,Rain,Light Rain,0,2013-09-04 05:53:00
2:53 AM,60.1,55.9,86,30.08,10.0,Calm,Calm,-,0.00,,Clear,0,2013-09-04 06:53:00
3:53 AM,59.0,55.9,90,30.09,10.0,Calm,Calm,-,N/A,,Clear,0,2013-09-04 07:53:00
4:53 AM,59.0,55.0,87,30.09,10.0,Calm,Calm,-,N/A,,Clear,0,2013-09-04 08:53:00
5:53 AM,57.0,54.0,89,30.09,10.0,Calm,Calm,-,N/A,,Clear,0,2013-09-04 09:53:00
6:53 AM,55.9,53.1,90,30.11,10.0,Calm,Calm,-,N/A,,Clear,0,2013-09-04 10:53:00
7:53 AM,57.0,55.0,93,30.13,10.0,Calm,Calm,-,N/A,,Clear,0,2013-09-04 11:53:00
8:53 AM,63.0,55.0,75,30.14,10.0,Calm,Calm,-,N/A,,Clear,0,2013-09-04 12:53:00
9:53 AM,68.0,55.9,65,30.14,10.0,Calm,Calm,-,N/A,,Clear,0,2013-09-04 13:53:00
10:53 AM,72.0,55.9,57,30.15,10.0,West,9.2,-,N/A,,Clear,280,2013-09-04 14:53:00
11:53 AM,73.9,57.0,55,30.15,10.0,NNW,9.2,-,N/A,,Clear,340,2013-09-04 15:53:00
12:53 PM,75.9,55.9,50,30.14,10.0,Variable,6.9,-,N/A,,Clear,0,2013-09-04 16:53:00
1:53 PM,77.0,55.0,47,30.13,10.0,NNW,4.6,-,N/A,,Clear,330,2013-09-04 17:53:00
2:53 PM,79.0,55.0,44,30.12,10.0,Calm,Calm,-,N/A,,Clear,0,2013-09-04 18:53:00
3:53 PM,80.1,55.0,42,30.11,10.0,Variable,4.6,-,N/A,,Clear,0,2013-09-04 19:53:00
4:53 PM,82.0,55.9,41,30.10,10.0,NNW,6.9,-,N/A,,Clear,340,2013-09-04 20:53:00
5:53 PM,80.1,55.9,43,30.10,10.0,WNW,6.9,-,N/A,,Clear,300,2013-09-04 21:53:00
6:53 PM,79.0,57.0,47,30.09,10.0,WNW,5.8,-,N/A,,Clear,300,2013-09-04 22:53:00
7:53 PM,75.9,55.9,50,30.09,10.0,Calm,Calm,-,N/A,,Clear,0,2013-09-04 23:53:00
8:53 PM,73.0,55.9,55,30.10,10.0,Calm,Calm,-,N/A,,Clear,0,2013-09-05 00:53:00
9:53 PM,70.0,59.0,68,30.12,10.0,West,3.5,-,N/A,,Clear,280,2013-09-05 01:53:00
10:53 PM,69.1,59.0,70,30.12,10.0,Calm,Calm,-,N/A,,Clear,0,2013-09-05 02:53:00
11:53 PM,68.0,59.0,73,30.12,10.0,WNW,3.5,-,N/A,,Clear,290,2013-09-05 03:53:00